Tracking 19250 objects as of 24-Sep-2018
HD Live streaming from Space Station
objects crossing your sky now

FENGYUN 1C DEB

Track FENGYUN 1C DEB now!
10-day predictions


NORAD ID: 35090
Int'l Code: 1999-025DJS
Perigee: 838.6 km
Apogee: 930.5 km
Inclination: 99.0 °
Period: 102.5 minutes
Semi major axis: 7255 km
RCS: 0.0091 m2 (small)
Launch date: May 10, 1999
Source: People's Republic of China (PRC)
Launch site: Taiyaun Space Center, China (TSC)

Note: This is SATELLITE DEBRIS
aabbcc
Your satellite tracking list
Your tracking list is empty




NASA's NSSDC Master Catalog

Two Line Element Set (TLE):
1 35090U 99025DJS 18265.81289987 +.00000356 +00000-0 +24544-3 0  9992
2 35090 099.0387 209.3736 0063340 175.5822 184.5917 14.04739742291188
Source of the keplerian elements: AFSPC